Regional Weather Roundup
Issued by NWS Kansas City/Pleasant Hill, MO

Home | Current Version | Previous Version | Graphics & Text | Print | Product List | Glossary Off
Versions: 1 2 3 4 5 6 7 8 9 10 11 12 13 14 15 16 17 18 19 20 21 22 23 24 25 26 27 28 29 30 31 32 33 34 35 36 37 38 39 40 41 42 43 44 45 46 47 48 49 50

000
ASUS43 KEAX 290710
RWREAX

WEATHER ROUNDUP FOR EASTERN KANSAS AND NORTHWEST MISSOURI
NATIONAL WEATHER SERVICE KANSAS CITY/PLEASANT HILL MO
200 AM CDT FRI AUG 29 2014

KSZ040-057-103>105-MOZ028-029-037-043-290800-
...KANSAS CITY METROPOLITAN AREA...

CITY           SKY/WX    TMP DP  RH WIND       PRES   REMARKS
K.C. INTL      CLEAR     72  64  76 SE7       29.87F
K.C. DOWNTOWN  CLEAR     78  63  59 S8        29.86F
LEES SUMMIT    CLEAR     75  64  68 S7        29.90F
OLATHE - IXD   PTCLDY    73  63  70 S7        29.89F
OLATHE - OJC   CLEAR     72  63  73 S5        29.88F
LAWRENCE       PTCLDY    76  64  66 S6        29.86F

$$

MOZ001>008-011>017-020>025-030>033-038>040-044>046-053-054-290800-
...NORTHERN AND CENTRAL MISSOURI...

CITY           SKY/WX    TMP DP  RH WIND       PRES   REMARKS
ST. JOSEPH     PTCLDY    73  66  78 SE6       29.85F
MOSBY          PTSUNNY   72  70  94 CALM      29.88F
WHITEMAN AFB   CLEAR     72  64  77 S3        29.90F
CLINTON        CLEAR     75  64  69 CALM      29.91F
SEDALIA        CLEAR     75  62  64 S6        29.92S
WARSAW         NOT AVBL
MARSHALL       CLEAR     72  68  88 E5        29.92S
CHILLICOTHE      N/A     76  72  87 SE3       29.90F
MOBERLY        CLEAR     73  68  83 SE7       29.93F
KIRKSVILLE     CLEAR     72  70  93 SE5       29.93F FOG

$$

MOZ041-047>049-056>058-063>065-088>090-097-290800-
...EASTERN AND SOUTHERN MISSOURI...

CITY           SKY/WX    TMP DP  RH WIND       PRES   REMARKS
ST. LOUIS INTL MOCLDY    77  71  82 SE13      29.97F
SPIRIT OF STL  CLEAR     74  70  87 E3        29.95F
COLUMBIA       CLEAR     74  70  87 SE8       29.93F
JEFFERSON CITY CLEAR     75  68  78 E6        29.92F
MEXICO         CLEAR    N/A N/A N/A SE7       29.93F
HANNIBAL       CLEAR     73  70  88 SE6       29.94F
ROLLA          CLEAR     73  64  73 SE9       29.95F
LEBANON        CLEAR     72  63  73 S6        29.96F
OSAGE BEACH    CLEAR     75  63  64 S6        29.94S
SPRINGFIELD    CLEAR     74  61  63 S9        29.94F
BRANSON        PTCLDY    75  64  69 S6        29.97F
NEVADA         CLEAR     68  63  83 S5        29.91F
JOPLIN         PTCLDY    75  63  66 S8        29.91F
WEST PLAINS    CLEAR     72  63  73 SE5       30.00F

$$

IAZ060-094-KSZ022-034>040-054-083-096-NEZ052-066-093-290800-
...KANSAS...SOUTHEAST NEBRASKA AND IOWA...

CITY           SKY/WX    TMP DP  RH WIND       PRES   REMARKS
TOPEKA         PTCLDY    77  64  64 S3        29.85F
MANHATTAN      CLOUDY    73  66  78 CALM      29.84F
EMPORIA        MOCLDY    72  64  76 S7        29.87S
CHANUTE        CLEAR     70  62  76 S3        29.89F
WICHITA        CLOUDY    69  64  84 W10       29.89R
OMAHA          CLOUDY    73  68  84 SE10      29.82F
LINCOLN        MOCLDY    74  68  81 S8        29.83F
FALLS CITY     CLOUDY    74  72  93 SE6       29.83F
DES MOINES     LGT RAIN  69  66  90 NE8       29.88F

$$




USA.gov is the U.S. government's official web portal to all federal, state and local government web resources and services.